FREGAT DEB, 45638

Orbit data source: Space-Track

FREGAT DEB, 45638 is space debris in LEO originally from a launch on Mon, 18 Jul 2011 UTC launched from the Tyuratam Missile And Space Complex (TTMTR). Debris objects in space refer to the collection of defunct objects orbiting the Earth. Examples of debris include non-operational satellites, rocket bodies, and fragments generated from explosions, collisions, or faulty payload assembly.

Loading next visibility...
Identifier
45638, 2011-037AE
Orbit
LEO
Country
Flag of CISCIS
Related business
Manufacturer
Lavochkin
Mission
Spacecraft
Bus & Motor
Unknown
Mass
Unknown
Launch date (UTC)
2011-07-18 (15 years ago)
Launch vehicle
Unknown
Launch site
Tyuratam Missile And Space Complex (TTMTR)
Object type
Payload
Rocket body
Debris
Shape & HBR
Unknown shape, 0.1 m
Radar Cross Section
Medium (>0.1 m² and <1 m²)

Expand to show TLE details & history
Last TLE update: 3 days ago

TLE from 3 days ago
0 FREGAT DEB
1 45638U 11037AE  26170.58773452  .00024063  00000-0  14865-2 0  9996
2 45638  51.3932 127.7887 1097042 188.1594 170.0063 13.20351237265726
Epoch: 2026-06-19T14:06Z
TLE epoch observation values (Epoch: 2026-06-19T14:06:20.262Z)
Latitude
0.00003°
Longitude
8.38973°
Altitude
2,003.283 km
Speed
6.514 km/s
True Right ascension
08h 31m 09s
True Declination
0° 00' 00"
Sunlit
Object was in daylight at epoch
Visualization orbit readout
Latitude
Unknown
Longitude
Unknown
Altitude
Unknown
Speed
Unknown
Apparent Right ascension
Unknown
Apparent Declination
Unknown
Sunlit
N/A
Visualization observer readout
Local Sidereal Time
21:43:10
Azimuth
Unknown
Elevation
Unknown
Doppler factor
Unknown
Orbital elements
Apogee altitude
2,013.467 km
Perigee altitude
354.296 km
Semi-major axis
7,562.019 km
Eccentricity
0.1097
Inclination
51.3932°
RAAN
127.7887°
Arg. of periapsis
188.1594°
True anomaly
171.92698°
Mean anomaly
170.0063°
Eccentric anomaly
170.9906°
Mean motion
3.30055 °/min
Orbital period
109.07 mins
BSTAR
0.0014865
Loading maneuver chart data...
Computing Atmospheric mass density...
Loading historical data...
Loading historical data...
Loading historical data...
Loading historical data...
Loading historical data...
Loading historical data...
Loading historical data...

Documentation

Showing up to 5 results
|